owner,sensor,date,latitude,longitude,vertical_datum,direction_of_sea_water_velocity,sea_water_speed,upward_sea_water_velocity,qcFlag 
TABS,ioos:station:wmo:42049:1,2016-04-01T00:00:00Z,28.3507,-96.0058,2.0,246.1305414,48.5853939,-99999.0,'11111222,11111222,99999999' 
TABS,ioos:station:wmo:42049:1,2016-04-01T00:30:00Z,28.3507,-96.0058,2.0,244.0485129,42.57270605,-99999.0,'11111222,11111222,99999999' 
TABS,ioos:station:wmo:42049:1,2016-04-01T01:00:00Z,28.3507,-96.0058,2.0,239.7592442,41.16122569,-99999.0,'11111222,11111222,99999999' 
TABS,ioos:station:wmo:42049:1,2016-04-01T01:30:00Z,28.3507,-96.0058,2.0,238.9694653,41.41693615,-99999.0,'11111222,11111222,99999999' 
TABS,ioos:station:wmo:42049:1,2016-04-01T02:00:00Z,28.3507,-96.0058,2.0,237.4772144,42.87336003,-99999.0,'11111222,11111222,99999999' 
TABS,ioos:station:wmo:42049:1,2016-04-01T02:30:00Z,28.3507,-96.0058,2.0,237.6856446,40.53808703,-99999.0,'11111222,11111222,99999999' 
TABS,ioos:station:wmo:42049:1,2016-04-01T03:00:00Z,28.3507,-96.0058,2.0,233.1085284,43.16200297,-99999.0,'11111222,11111222,99999999' 
TABS,ioos:station:wmo:42049:1,2016-04-01T03:30:00Z,28.3507,-96.0058,2.0,231.478241,42.67772838,-99999.0,'11111222,11111222,99999999' 
TABS,ioos:station:wmo:42049:1,2016-04-01T04:00:00Z,28.3507,-96.0058,2.0,229.1837706,48.06995735,-99999.0,'11111222,11111222,99999999' 
TABS,ioos:station:wmo:42049:1,2016-04-01T04:30:00Z,28.3507,-96.0058,2.0,235.5403719,54.54026494,-99999.0,'11111222,11111222,99999999' 
TABS,ioos:station:wmo:42049:1,2016-04-01T05:00:00Z,28.3507,-96.0058,2.0,232.9478351,51.64826038,-99999.0,'11111222,11111222,99999999' 
TABS,ioos:station:wmo:42049:1,2016-04-01T05:30:00Z,28.3507,-96.0058,2.0,237.7809884,56.38167787,-99999.0,'11111222,11111222,99999999' 
TABS,ioos:station:wmo:42049:1,2016-04-01T06:00:00Z,28.3507,-96.0058,2.0,234.9060733,56.84331535,-99999.0,'11111222,11111222,99999999' 
TABS,ioos:station:wmo:42049:1,2016-04-01T06:30:00Z,28.3507,-96.0058,2.0,233.6726008,57.20856754,-99999.0,'11111222,11111222,99999999' 
TABS,ioos:station:wmo:42049:1,2016-04-01T07:00:00Z,28.3507,-96.0058,2.0,233.0359284,59.83608025,-99999.0,'11111222,11111222,99999999' 
TABS,ioos:station:wmo:42049:1,2016-04-01T07:30:00Z,28.3507,-96.0058,2.0,234.0783211,61.97649312,-99999.0,'11111222,11111222,99999999' 
TABS,ioos:station:wmo:42049:1,2016-04-01T08:00:00Z,28.3507,-96.0058,2.0,233.0071388,61.67414126,-99999.0,'11111222,11111222,99999999' 
TABS,ioos:station:wmo:42049:1,2016-04-01T08:30:00Z,28.3507,-96.0058,2.0,229.4241789,60.2199012,-99999.0,'11111222,11111222,99999999' 
TABS,ioos:station:wmo:42049:1,2016-04-01T09:00:00Z,28.3507,-96.0058,2.0,227.6858936,59.59680612,-99999.0,'11111222,11111222,99999999' 
TABS,ioos:station:wmo:42049:1,2016-04-01T09:30:00Z,28.3507,-96.0058,2.0,232.6476096,70.82450776,-99999.0,'11111222,11111222,99999999' 
TABS,ioos:station:wmo:42049:1,2016-04-01T10:00:00Z,28.3507,-96.0058,2.0,238.7128284,78.77569739,-99999.0,'11111222,11111222,99999999' 
TABS,ioos:station:wmo:42049:1,2016-04-01T10:30:00Z,28.3507,-96.0058,2.0,242.9840641,82.4687365,-99999.0,'11111222,11111222,99999999' 
TABS,ioos:station:wmo:42049:1,2016-04-01T11:00:00Z,28.3507,-96.0058,2.0,246.9483321,84.79009612,-99999.0,'11111222,11111222,99999999' 
TABS,ioos:station:wmo:42049:1,2016-04-01T11:30:00Z,28.3507,-96.0058,2.0,251.2909366,94.65121288,-99999.0,'11111222,11111222,99999999' 
TABS,ioos:station:wmo:42049:1,2016-04-01T12:00:00Z,28.3507,-96.0058,2.0,247.3520592,95.43924193,-99999.0,'11111222,11111222,99999999' 
TABS,ioos:station:wmo:42049:1,2016-04-01T12:30:00Z,28.3507,-96.0058,2.0,251.0212426,97.69031324,-99999.0,'11111222,11111222,99999999' 
TABS,ioos:station:wmo:42049:1,2016-04-01T13:00:00Z,28.3507,-96.0058,2.0,250.1188162,100.0104125,-99999.0,'11111222,11111222,99999999' 
TABS,ioos:station:wmo:42049:1,2016-04-01T13:30:00Z,28.3507,-96.0058,2.0,248.3116298,102.2589091,-99999.0,'11111222,11111222,99999999' 
TABS,ioos:station:wmo:42049:1,2016-04-01T14:00:00Z,28.3507,-96.0058,2.0,246.9064798,107.7436759,-99999.0,'11111222,11111222,99999999' 
TABS,ioos:station:wmo:42049:1,2016-04-01T14:30:00Z,28.3507,-96.0058,2.0,248.3097789,107.7703507,-99999.0,'11111222,11111222,99999999' 
TABS,ioos:station:wmo:42049:1,2016-04-01T15:00:00Z,28.3507,-96.0058,2.0,248.4814554,111.9422315,-99999.0,'11111222,11111222,99999999' 
TABS,ioos:station:wmo:42049:1,2016-04-01T15:30:00Z,28.3507,-96.0058,2.0,249.6903533,111.960259,-99999.0,'11111222,11111222,99999999' 
TABS,ioos:station:wmo:42049:1,2016-04-01T16:00:00Z,28.3507,-96.0058,2.0,243.2870966,112.921807,-99999.0,'11111222,11111222,99999999' 
TABS,ioos:station:wmo:42049:1,2016-04-01T16:30:00Z,28.3507,-96.0058,2.0,247.7033338,115.2356837,-99999.0,'11111222,11111222,99999999' 
TABS,ioos:station:wmo:42049:1,2016-04-01T17:00:00Z,28.3507,-96.0058,2.0,248.026176,115.0257819,-99999.0,'11111222,11111222,99999999' 
TABS,ioos:station:wmo:42049:1,2016-04-01T17:30:00Z,28.3507,-96.0058,2.0,240.176855,115.8411071,-99999.0,'11111222,11111222,99999999' 
TABS,ioos:station:wmo:42049:1,2016-04-01T18:00:00Z,28.3507,-96.0058,2.0,243.7097441,113.6114519,-99999.0,'11111222,11111222,99999999' 
TABS,ioos:station:wmo:42049:1,2016-04-01T18:30:00Z,28.3507,-96.0058,2.0,242.9108421,115.9494411,-99999.0,'11111222,11111222,99999999' 
TABS,ioos:station:wmo:42049:1,2016-04-01T19:00:00Z,28.3507,-96.0058,2.0,243.2581642,107.4748808,-99999.0,'11111222,11111222,99999999' 
TABS,ioos:station:wmo:42049:1,2016-04-01T19:30:00Z,28.3507,-96.0058,2.0,240.5594397,106.3650098,-99999.0,'11111222,11111222,99999999' 
TABS,ioos:station:wmo:42049:1,2016-04-01T20:00:00Z,28.3507,-96.0058,2.0,241.9215961,109.0776476,-99999.0,'11111222,11111222,99999999' 
TABS,ioos:station:wmo:42049:1,2016-04-01T20:30:00Z,28.3507,-96.0058,2.0,241.2888394,108.4537892,-99999.0,'11111222,11111222,99999999' 
TABS,ioos:station:wmo:42049:1,2016-04-01T21:00:00Z,28.3507,-96.0058,2.0,241.1816904,108.6450781,-99999.0,'11111222,11111222,99999999' 
TABS,ioos:station:wmo:42049:1,2016-04-01T21:30:00Z,28.3507,-96.0058,2.0,241.0199392,111.4551479,-99999.0,'11111222,11111222,99999999' 
TABS,ioos:station:wmo:42049:1,2016-04-01T22:00:00Z,28.3507,-96.0058,2.0,239.0505299,114.1408871,-99999.0,'11111222,11111222,99999999' 
TABS,ioos:station:wmo:42049:1,2016-04-01T22:30:00Z,28.3507,-96.0058,2.0,239.9510673,120.0437429,-99999.0,'11111222,11111222,99999999' 
TABS,ioos:station:wmo:42049:1,2016-04-01T23:00:00Z,28.3507,-96.0058,2.0,233.8895613,119.1504763,-99999.0,'11111222,11111222,99999999' 
TABS,ioos:station:wmo:42049:1,2016-04-01T23:30:00Z,28.3507,-96.0058,2.0,238.8331842,117.7911104,-99999.0,'11111222,11111222,99999999' 
TABS,ioos:station:wmo:42049:1,2016-04-02T00:00:00Z,28.3507,-96.0058,2.0,236.7102527,113.4334166,-99999.0,'11111222,11111222,99999999' 
TABS,ioos:station:wmo:42049:1,2016-04-02T00:30:00Z,28.3507,-96.0058,2.0,237.2525087,106.8525007,-99999.0,'11111222,11111222,99999999' 
TABS,ioos:station:wmo:42049:1,2016-04-02T01:00:00Z,28.3507,-96.0058,2.0,237.3494037,102.0927422,-99999.0,'11111222,11111222,99999999' 
TABS,ioos:station:wmo:42049:1,2016-04-02T01:30:00Z,28.3507,-96.0058,2.0,237.1184661,97.64251175,-99999.0,'11111222,11111222,99999999' 
TABS,ioos:station:wmo:42049:1,2016-04-02T02:00:00Z,28.3507,-96.0058,2.0,237.9565488,91.77145635,-99999.0,'11111222,11111222,99999999' 
TABS,ioos:station:wmo:42049:1,2016-04-02T02:30:00Z,28.3507,-96.0058,2.0,236.9407135,90.39388088,-99999.0,'11111222,11111222,99999999' 
TABS,ioos:station:wmo:42049:1,2016-04-02T03:00:00Z,28.3507,-96.0058,2.0,239.3417536,108.5875914,-99999.0,'11111222,11111222,99999999' 
TABS,ioos:station:wmo:42049:1,2016-04-02T03:30:00Z,28.3507,-96.0058,2.0,243.9046563,95.39387035,-99999.0,'11111222,11111222,99999999' 
TABS,ioos:station:wmo:42049:1,2016-04-02T04:00:00Z,28.3507,-96.0058,2.0,242.2339941,108.8533256,-99999.0,'11111222,11111222,99999999' 
TABS,ioos:station:wmo:42049:1,2016-04-02T04:30:00Z,28.3507,-96.0058,2.0,230.4334725,123.5067326,-99999.0,'11111222,11111222,99999999' 
TABS,ioos:station:wmo:42049:1,2016-04-02T05:00:00Z,28.3507,-96.0058,2.0,231.3802768,130.6268904,-99999.0,'11111222,11111222,99999999' 
TABS,ioos:station:wmo:42049:1,2016-04-02T05:30:00Z,28.3507,-96.0058,2.0,235.9816032,128.3930111,-99999.0,'11111222,11111222,99999999' 
TABS,ioos:station:wmo:42049:1,2016-04-02T06:00:00Z,28.3507,-96.0058,2.0,228.5376062,138.1916191,-99999.0,'11111222,11111222,99999999' 
TABS,ioos:station:wmo:42049:1,2016-04-02T06:30:00Z,28.3507,-96.0058,2.0,229.0643363,136.369142,-99999.0,'11111222,11111222,99999999' 
TABS,ioos:station:wmo:42049:1,2016-04-02T07:00:00Z,28.3507,-96.0058,2.0,232.3401567,140.6293543,-99999.0,'11111222,11111222,99999999' 
TABS,ioos:station:wmo:42049:1,2016-04-02T07:30:00Z,28.3507,-96.0058,2.0,227.9502174,139.5699108,-99999.0,'11111222,11111222,99999999' 
TABS,ioos:station:wmo:42049:1,2016-04-02T08:00:00Z,28.3507,-96.0058,2.0,227.7493492,145.1876899,-99999.0,'11111222,11111222,99999999' 
TABS,ioos:station:wmo:42049:1,2016-04-02T08:30:00Z,28.3507,-96.0058,2.0,227.526041,145.3385689,-99999.0,'11111222,11111222,99999999' 
TABS,ioos:station:wmo:42049:1,2016-04-02T09:00:00Z,28.3507,-96.0058,2.0,229.1903116,148.1460404,-99999.0,'11111222,11111222,99999999' 
TABS,ioos:station:wmo:42049:1,2016-04-02T09:30:00Z,28.3507,-96.0058,2.0,233.8303127,141.8226008,-99999.0,'11111222,11111222,99999999' 
TABS,ioos:station:wmo:42049:1,2016-04-02T10:00:00Z,28.3507,-96.0058,2.0,231.5160376,140.6897985,-99999.0,'11111222,11111222,99999999' 
TABS,ioos:station:wmo:42049:1,2016-04-02T10:30:00Z,28.3507,-96.0058,2.0,229.076274,140.8443254,-99999.0,'11111222,11111222,99999999' 
TABS,ioos:station:wmo:42049:1,2016-04-02T11:00:00Z,28.3507,-96.0058,2.0,230.9575785,135.2932179,-99999.0,'11111222,11111222,99999999' 
TABS,ioos:station:wmo:42049:1,2016-04-02T11:30:00Z,28.3507,-96.0058,2.0,231.4906491,138.8608195,-99999.0,'11111222,11111222,99999999' 
TABS,ioos:station:wmo:42049:1,2016-04-02T12:00:00Z,28.3507,-96.0058,2.0,235.4601061,136.9372469,-99999.0,'11111222,11111222,99999999' 
TABS,ioos:station:wmo:42049:1,2016-04-02T12:30:00Z,28.3507,-96.0058,2.0,232.6780465,131.406084,-99999.0,'11111222,11111222,99999999' 
TABS,ioos:station:wmo:42049:1,2016-04-02T13:00:00Z,28.3507,-96.0058,2.0,233.3543148,131.1530072,-99999.0,'11111222,11111222,99999999' 
TABS,ioos:station:wmo:42049:1,2016-04-02T13:30:00Z,28.3507,-96.0058,2.0,239.2841244,124.6926465,-99999.0,'11111222,11111222,99999999' 
TABS,ioos:station:wmo:42049:1,2016-04-02T14:00:00Z,28.3507,-96.0058,2.0,242.744792,129.2719861,-99999.0,'11111222,11111222,99999999' 
TABS,ioos:station:wmo:42049:1,2016-04-02T14:30:00Z,28.3507,-96.0058,2.0,244.8658105,110.1159798,-99999.0,'11111222,11111222,99999999' 
TABS,ioos:station:wmo:42049:1,2016-04-02T15:00:00Z,28.3507,-96.0058,2.0,246.5608463,102.4212307,-99999.0,'11111222,11111222,99999999' 
TABS,ioos:station:wmo:42049:1,2016-04-02T15:30:00Z,28.3507,-96.0058,2.0,245.774395,93.87684752,-99999.0,'11111222,11111222,99999999' 
TABS,ioos:station:wmo:42049:1,2016-04-02T16:00:00Z,28.3507,-96.0058,2.0,243.8788291,103.8237569,-99999.0,'11111222,11111222,99999999' 
TABS,ioos:station:wmo:42049:1,2016-04-02T16:30:00Z,28.3507,-96.0058,2.0,246.7706929,106.590638,-99999.0,'11111222,11111222,99999999' 
TABS,ioos:station:wmo:42049:1,2016-04-02T17:00:00Z,28.3507,-96.0058,2.0,247.0892324,107.5544597,-99999.0,'11111222,11111222,99999999' 
TABS,ioos:station:wmo:42049:1,2016-04-02T17:30:00Z,28.3507,-96.0058,2.0,250.0402102,97.11313454,-99999.0,'11111222,11111222,99999999' 
TABS,ioos:station:wmo:42049:1,2016-04-02T18:00:00Z,28.3507,-96.0058,2.0,251.737751,106.7779547,-99999.0,'11111222,11111222,99999999' 
TABS,ioos:station:wmo:42049:1,2016-04-02T18:30:00Z,28.3507,-96.0058,2.0,257.2351128,93.86985725,-99999.0,'11111222,11111222,99999999' 
TABS,ioos:station:wmo:42049:1,2016-04-02T19:00:00Z,28.3507,-96.0058,2.0,253.70058,106.8232245,-99999.0,'11111222,11111222,99999999' 
TABS,ioos:station:wmo:42049:1,2016-04-02T19:30:00Z,28.3507,-96.0058,2.0,255.8476274,111.6587789,-99999.0,'11111222,11111222,99999999' 
TABS,ioos:station:wmo:42049:1,2016-04-02T20:00:00Z,28.3507,-96.0058,2.0,260.859574,112.8123699,-99999.0,'11111222,11111222,99999999' 
TABS,ioos:station:wmo:42049:1,2016-04-02T20:30:00Z,28.3507,-96.0058,2.0,261.2928,116.1990865,-99999.0,'11111222,11111222,99999999' 
TABS,ioos:station:wmo:42049:1,2016-04-02T21:00:00Z,28.3507,-96.0058,2.0,261.0677864,118.9625626,-99999.0,'11111222,11111222,99999999' 
TABS,ioos:station:wmo:42049:1,2016-04-02T21:30:00Z,28.3507,-96.0058,2.0,263.0447988,113.1425035,-99999.0,'11111222,11111222,99999999' 
TABS,ioos:station:wmo:42049:1,2016-04-02T22:00:00Z,28.3507,-96.0058,2.0,267.5027278,109.033515,-99999.0,'11111222,11111222,99999999' 
TABS,ioos:station:wmo:42049:1,2016-04-02T22:30:00Z,28.3507,-96.0058,2.0,271.1420309,104.9008222,-99999.0,'11111222,11111222,99999999' 
TABS,ioos:station:wmo:42049:1,2016-04-02T23:00:00Z,28.3507,-96.0058,2.0,266.5488336,96.19440992,-99999.0,'11111222,11111222,99999999' 
TABS,ioos:station:wmo:42049:1,2016-04-02T23:30:00Z,28.3507,-96.0058,2.0,273.3645233,100.2026711,-99999.0,'11111222,11111222,99999999' 
TABS,ioos:station:wmo:42049:1,2016-04-03T00:00:00Z,28.3507,-96.0058,2.0,274.6203336,100.3159334,-99999.0,'11111222,11111222,99999999' 
TABS,ioos:station:wmo:42049:1,2016-04-03T00:30:00Z,28.3507,-96.0058,2.0,270.7963076,96.46930704,-99999.0,'11111222,11111222,99999999' 
TABS,ioos:station:wmo:42049:1,2016-04-03T01:00:00Z,28.3507,-96.0058,2.0,276.423965,85.00365286,-99999.0,'11111222,11111222,99999999' 
TABS,ioos:station:wmo:42049:1,2016-04-03T01:30:00Z,28.3507,-96.0058,2.0,279.2783918,79.20619799,-99999.0,'11111222,11111222,99999999' 
TABS,ioos:station:wmo:42049:1,2016-04-03T02:00:00Z,28.3507,-96.0058,2.0,281.2544054,84.39273547,-99999.0,'11111222,11111222,99999999' 
TABS,ioos:station:wmo:42049:1,2016-04-03T02:30:00Z,28.3507,-96.0058,2.0,280.4882012,79.54897108,-99999.0,'11111222,11111222,99999999' 
TABS,ioos:station:wmo:42049:1,2016-04-03T03:00:00Z,28.3507,-96.0058,2.0,278.9095672,73.22343341,-99999.0,'11111222,11111222,99999999' 
TABS,ioos:station:wmo:42049:1,2016-04-03T03:30:00Z,28.3507,-96.0058,2.0,252.1934069,78.3849335,-99999.0,'11111222,11111222,99999999' 
TABS,ioos:station:wmo:42049:1,2016-04-03T04:00:00Z,28.3507,-96.0058,2.0,248.9010181,82.81149498,-99999.0,'11111222,11111222,99999999' 
TABS,ioos:station:wmo:42049:1,2016-04-03T04:30:00Z,28.3507,-96.0058,2.0,260.3263294,77.24831972,-99999.0,'11111222,11111222,99999999' 
TABS,ioos:station:wmo:42049:1,2016-04-03T05:00:00Z,28.3507,-96.0058,2.0,263.3786835,75.28207489,-99999.0,'11111222,11111222,99999999' 
TABS,ioos:station:wmo:42049:1,2016-04-03T05:30:00Z,28.3507,-96.0058,2.0,262.6191908,76.5239897,-99999.0,'11111222,11111222,99999999' 
TABS,ioos:station:wmo:42049:1,2016-04-03T06:00:00Z,28.3507,-96.0058,2.0,258.5739301,79.60762401,-99999.0,'11111222,11111222,99999999' 
TABS,ioos:station:wmo:42049:1,2016-04-03T06:30:00Z,28.3507,-96.0058,2.0,257.465191,77.54830043,-99999.0,'11111222,11111222,99999999' 
TABS,ioos:station:wmo:42049:1,2016-04-03T07:00:00Z,28.3507,-96.0058,2.0,253.9592361,78.71457934,-99999.0,'11111222,11111222,99999999' 
TABS,ioos:station:wmo:42049:1,2016-04-03T07:30:00Z,28.3507,-96.0058,2.0,251.6083631,78.79449537,-99999.0,'11111222,11111222,99999999' 
TABS,ioos:station:wmo:42049:1,2016-04-03T08:00:00Z,28.3507,-96.0058,2.0,250.6077944,72.52430282,-99999.0,'11111222,11111222,99999999' 
TABS,ioos:station:wmo:42049:1,2016-04-03T08:30:00Z,28.3507,-96.0058,2.0,250.6932353,77.76307736,-99999.0,'11111222,11111222,99999999' 
TABS,ioos:station:wmo:42049:1,2016-04-03T09:00:00Z,28.3507,-96.0058,2.0,248.7524556,71.22120822,-99999.0,'11111222,11111222,99999999' 
TABS,ioos:station:wmo:42049:1,2016-04-03T09:30:00Z,28.3507,-96.0058,2.0,248.5164531,72.55043074,-99999.0,'11111222,11111222,99999999' 
TABS,ioos:station:wmo:42049:1,2016-04-03T10:00:00Z,28.3507,-96.0058,2.0,248.9904243,72.66024635,-99999.0,'11111222,11111222,99999999' 
TABS,ioos:station:wmo:42049:1,2016-04-03T10:30:00Z,28.3507,-96.0058,2.0,246.8642605,73.78375566,-99999.0,'11111222,11111222,99999999' 
TABS,ioos:station:wmo:42049:1,2016-04-03T11:00:00Z,28.3507,-96.0058,2.0,244.4351964,75.29094567,-99999.0,'11111222,11111222,99999999' 
TABS,ioos:station:wmo:42049:1,2016-04-03T11:30:00Z,28.3507,-96.0058,2.0,243.8224171,76.6407496,-99999.0,'11111222,11111222,99999999' 
TABS,ioos:station:wmo:42049:1,2016-04-03T12:00:00Z,28.3507,-96.0058,2.0,242.9490453,73.88233889,-99999.0,'11111222,11111222,99999999' 
TABS,ioos:station:wmo:42049:1,2016-04-03T12:30:00Z,28.3507,-96.0058,2.0,243.3998759,73.81261749,-99999.0,'11111222,11111222,99999999' 
TABS,ioos:station:wmo:42049:1,2016-04-03T13:00:00Z,28.3507,-96.0058,2.0,243.103405,71.95339742,-99999.0,'11111222,11111222,99999999' 
TABS,ioos:station:wmo:42049:1,2016-04-03T13:30:00Z,28.3507,-96.0058,2.0,253.4196949,74.04875286,-99999.0,'11111222,11111222,99999999' 
TABS,ioos:station:wmo:42049:1,2016-04-03T14:00:00Z,28.3507,-96.0058,2.0,251.7598456,65.91173568,-99999.0,'11111222,11111222,99999999' 
TABS,ioos:station:wmo:42049:1,2016-04-03T14:30:00Z,28.3507,-96.0058,2.0,251.138536,65.053013,-99999.0,'11111222,11111222,99999999' 
TABS,ioos:station:wmo:42049:1,2016-04-03T15:00:00Z,28.3507,-96.0058,2.0,249.5215245,60.22591884,-99999.0,'11111222,11111222,99999999' 
TABS,ioos:station:wmo:42049:1,2016-04-03T15:30:00Z,28.3507,-96.0058,2.0,246.0970736,58.24536462,-99999.0,'11111222,11111222,99999999' 
TABS,ioos:station:wmo:42049:1,2016-04-03T16:00:00Z,28.3507,-96.0058,2.0,243.110813,56.980394,-99999.0,'11111222,11111222,99999999' 
TABS,ioos:station:wmo:42049:1,2016-04-03T16:30:00Z,28.3507,-96.0058,2.0,244.4821948,59.1941416,-99999.0,'11111222,11111222,99999999' 
TABS,ioos:station:wmo:42049:1,2016-04-03T17:00:00Z,28.3507,-96.0058,2.0,243.9834278,53.69045539,-99999.0,'11111222,11111222,99999999' 
TABS,ioos:station:wmo:42049:1,2016-04-03T17:30:00Z,28.3507,-96.0058,2.0,233.9355635,52.76121776,-99999.0,'11111222,11111222,99999999' 
TABS,ioos:station:wmo:42049:1,2016-04-03T18:00:00Z,28.3507,-96.0058,2.0,240.7215889,51.30370942,-99999.0,'11111222,11111222,99999999' 
TABS,ioos:station:wmo:42049:1,2016-04-03T18:30:00Z,28.3507,-96.0058,2.0,240.8070257,48.3857169,-99999.0,'11111222,11111222,99999999' 
TABS,ioos:station:wmo:42049:1,2016-04-03T19:00:00Z,28.3507,-96.0058,2.0,239.4875987,43.7249231,-99999.0,'11111222,11111222,99999999' 
TABS,ioos:station:wmo:42049:1,2016-04-03T19:30:00Z,28.3507,-96.0058,2.0,234.8178121,40.05738384,-99999.0,'11111222,11111222,99999999' 
TABS,ioos:station:wmo:42049:1,2016-04-03T20:00:00Z,28.3507,-96.0058,2.0,229.0651337,40.09485004,-99999.0,'11111222,11111222,99999999' 
TABS,ioos:station:wmo:42049:1,2016-04-03T20:30:00Z,28.3507,-96.0058,2.0,233.6326559,48.99188708,-99999.0,'11111222,11111222,99999999' 
TABS,ioos:station:wmo:42049:1,2016-04-03T21:00:00Z,28.3507,-96.0058,2.0,233.5158715,45.40903104,-99999.0,'11111222,11111222,99999999' 
TABS,ioos:station:wmo:42049:1,2016-04-03T21:30:00Z,28.3507,-96.0058,2.0,235.4432763,44.392184,-99999.0,'11111222,11111222,99999999' 
TABS,ioos:station:wmo:42049:1,2016-04-03T22:00:00Z,28.3507,-96.0058,2.0,240.0175823,44.64420455,-99999.0,'11111222,11111222,99999999' 
TABS,ioos:station:wmo:42049:1,2016-04-03T22:30:00Z,28.3507,-96.0058,2.0,230.6906191,36.93746607,-99999.0,'11111222,11111222,99999999' 
TABS,ioos:station:wmo:42049:1,2016-04-03T23:00:00Z,28.3507,-96.0058,2.0,231.1346076,39.23578596,-99999.0,'11111222,11111222,99999999' 
TABS,ioos:station:wmo:42049:1,2016-04-03T23:30:00Z,28.3507,-96.0058,2.0,231.324173,39.92582372,-99999.0,'11111222,11111222,99999999' 
TABS,ioos:station:wmo:42049:1,2016-04-04T00:00:00Z,28.3507,-96.0058,2.0,234.2926087,40.11026053,-99999.0,'11111222,11111222,99999999' 
TABS,ioos:station:wmo:42049:1,2016-04-04T00:30:00Z,28.3507,-96.0058,2.0,229.2718246,36.82945832,-99999.0,'11111222,11111222,99999999' 
TABS,ioos:station:wmo:42049:1,2016-04-04T01:00:00Z,28.3507,-96.0058,2.0,221.4269621,35.06285927,-99999.0,'11111222,11111222,99999999' 
TABS,ioos:station:wmo:42049:1,2016-04-04T01:30:00Z,28.3507,-96.0058,2.0,222.536589,30.60357169,-99999.0,'11111222,11111222,99999999' 
TABS,ioos:station:wmo:42049:1,2016-04-04T02:00:00Z,28.3507,-96.0058,2.0,217.0191119,31.42410699,-99999.0,'11111222,11111222,99999999' 
TABS,ioos:station:wmo:42049:1,2016-04-04T02:30:00Z,28.3507,-96.0058,2.0,198.4938103,27.58456271,-99999.0,'11111222,11111222,99999999' 
TABS,ioos:station:wmo:42049:1,2016-04-04T03:00:00Z,28.3507,-96.0058,2.0,196.6553021,26.37662791,-99999.0,'11111222,11111222,99999999' 
TABS,ioos:station:wmo:42049:1,2016-04-04T03:30:00Z,28.3507,-96.0058,2.0,191.6790492,24.94649074,-99999.0,'11111222,11111222,99999999' 
TABS,ioos:station:wmo:42049:1,2016-04-04T04:00:00Z,28.3507,-96.0058,2.0,188.2453356,21.7548914,-99999.0,'11111222,11111222,99999999' 
TABS,ioos:station:wmo:42049:1,2016-04-04T04:30:00Z,28.3507,-96.0058,2.0,189.0443335,22.77315305,-99999.0,'11111222,11111222,99999999' 
TABS,ioos:station:wmo:42049:1,2016-04-04T05:00:00Z,28.3507,-96.0058,2.0,183.1521201,16.18448949,-99999.0,'11111222,11111222,99999999' 
TABS,ioos:station:wmo:42049:1,2016-04-04T05:30:00Z,28.3507,-96.0058,2.0,186.6900236,18.79800521,-99999.0,'11111222,11111222,99999999' 
TABS,ioos:station:wmo:42049:1,2016-04-04T06:00:00Z,28.3507,-96.0058,2.0,195.4615829,19.20506444,-99999.0,'11111222,11111222,99999999' 
TABS,ioos:station:wmo:42049:1,2016-04-04T06:30:00Z,28.3507,-96.0058,2.0,195.2003855,20.28986939,-99999.0,'11111222,11111222,99999999' 
TABS,ioos:station:wmo:42049:1,2016-04-04T07:00:00Z,28.3507,-96.0058,2.0,190.039974,22.65697685,-99999.0,'11111222,11111222,99999999' 
TABS,ioos:station:wmo:42049:1,2016-04-04T07:30:00Z,28.3507,-96.0058,2.0,185.9093463,22.92181494,-99999.0,'11111222,11111222,99999999' 
TABS,ioos:station:wmo:42049:1,2016-04-04T08:00:00Z,28.3507,-96.0058,2.0,191.3435497,23.23388259,-99999.0,'11111222,11111222,99999999' 
TABS,ioos:station:wmo:42049:1,2016-04-04T08:30:00Z,28.3507,-96.0058,2.0,214.0557675,31.69621586,-99999.0,'11111222,11111222,99999999' 
TABS,ioos:station:wmo:42049:1,2016-04-04T09:00:00Z,28.3507,-96.0058,2.0,216.1061344,31.97083827,-99999.0,'11111222,11111222,99999999' 
TABS,ioos:station:wmo:42049:1,2016-04-04T09:30:00Z,28.3507,-96.0058,2.0,209.4617256,35.92585838,-99999.0,'11111222,11111222,99999999' 
TABS,ioos:station:wmo:42049:1,2016-04-04T10:00:00Z,28.3507,-96.0058,2.0,220.8943925,38.12602785,-99999.0,'11111222,11111222,99999999' 
TABS,ioos:station:wmo:42049:1,2016-04-04T10:30:00Z,28.3507,-96.0058,2.0,222.2989638,39.16772268,-99999.0,'11111222,11111222,99999999' 
TABS,ioos:station:wmo:42049:1,2016-04-04T11:00:00Z,28.3507,-96.0058,2.0,224.0765343,43.88874343,-99999.0,'11111222,11111222,99999999' 
TABS,ioos:station:wmo:42049:1,2016-04-04T11:30:00Z,28.3507,-96.0058,2.0,221.1634452,46.18563521,-99999.0,'11111222,11111222,99999999' 
TABS,ioos:station:wmo:42049:1,2016-04-04T12:00:00Z,28.3507,-96.0058,2.0,219.4119659,44.95224688,-99999.0,'11111222,11111222,99999999' 
TABS,ioos:station:wmo:42049:1,2016-04-04T12:30:00Z,28.3507,-96.0058,2.0,215.5416483,46.86058578,-99999.0,'11111222,11111222,99999999' 
TABS,ioos:station:wmo:42049:1,2016-04-04T13:00:00Z,28.3507,-96.0058,2.0,213.5890259,48.89412439,-99999.0,'11111222,11111222,99999999' 
TABS,ioos:station:wmo:42049:1,2016-04-04T13:30:00Z,28.3507,-96.0058,2.0,212.0776451,51.0664988,-99999.0,'11111222,11111222,99999999' 
TABS,ioos:station:wmo:42049:1,2016-04-04T14:00:00Z,28.3507,-96.0058,2.0,211.307878,50.78507852,-99999.0,'11111222,11111222,99999999' 
TABS,ioos:station:wmo:42049:1,2016-04-04T14:30:00Z,28.3507,-96.0058,2.0,211.377776,49.56953197,-99999.0,'11111222,11111222,99999999' 
TABS,ioos:station:wmo:42049:1,2016-04-04T15:00:00Z,28.3507,-96.0058,2.0,209.5888674,48.82769399,-99999.0,'11111222,11111222,99999999' 
TABS,ioos:station:wmo:42049:1,2016-04-04T15:30:00Z,28.3507,-96.0058,2.0,207.9947324,50.89534065,-99999.0,'11111222,11111222,99999999' 
TABS,ioos:station:wmo:42049:1,2016-04-04T16:00:00Z,28.3507,-96.0058,2.0,203.8677704,47.42586847,-99999.0,'11111222,11111222,99999999' 